Kaltag, AK

9:31 AM AKST on February 27, 2017 (GMT -0900)
Kaltag

Weather History for PAKV - March, 2013

Change the Weather History Date:

Wednesday, March 20, 2013

  Actual Average (PAGA) Record (PAGA)
Temperature  
Mean Temperature 10 °F -  
Max Temperature 21 °F 17 °F 48 °F (1998)
Min Temperature -2 °F -5 °F -41 °F (1966)
Degree Days  
Heating Degree Days 56    
Moisture  
Dew Point 0 °F    
Average Humidity 67    
Maximum Humidity 79    
Minimum Humidity 51    
Precipitation  
Precipitation 0.00 in - - ()
Sea Level Pressure  
Sea Level Pressure 30.03 in    
Wind  
Wind Speed 3 mph (SW)    
Max Wind Speed 8 mph    
Max Gust Speed -    
Visibility 8 miles    
Events Snow    
Averages and records for this station are not official NWS values.
T = Trace of Precipitation, MM = Missing Value Source: NWS Daily Summary

Daily Weather History Graph

Daily Weather History Graph

Search for Another Location

Airport or City:

Trip Planner

Search our weather history database for the weather conditions in past years. The results will help you decide how hot, cold, wet, or windy it might be!

Date:

Astronomy

Mar. 20, 2013 Rise Set
Actual Time 8:33 AM AKDT 8:52 PM AKDT
Civil Twilight 7:45 AM AKDT 9:40 PM AKDT
Nautical Twilight 6:47 AM AKDT 10:39 PM AKDT
Astronomical Twilight 5:39 AM AKDT 11:48 PM AKDT
Moon 12:37 PM AKDT (3/20) 6:24 AM AKDT (3/20)
Length of Visible Light 13h 54m
Length of Day
12h 18m
First Quarter, 60% of the Moon is Illuminated
Mar 20
First Quarter
Mar 27
Full
Apr 2
Last Quarter
Apr 10
New
Apr 18
First Quarter

Hourly Weather History & Observations

Time (AKDT) Temp. Windchill Dew Point Humidity Pressure Visibility Wind Dir Wind Speed Gust Speed Precip Events Conditions
12:53 AM 1.9 °F -9.2 °F -9.0 °F 60% 30.23 in 10.0 mi SSW 5.8 mph - N/A   Partly Cloudy
1:53 AM -0.0 °F -9.9 °F -9.0 °F 66% 30.21 in 10.0 mi SW 4.6 mph - N/A   Partly Cloudy
2:53 AM 1.9 °F -9.2 °F -7.1 °F 66% 30.19 in 10.0 mi SW 5.8 mph - N/A   Overcast
3:53 AM 1.9 °F - -7.1 °F 66% 30.16 in 10.0 mi Calm Calm - N/A   Overcast
4:53 AM 1.0 °F - -7.1 °F 69% 30.13 in 10.0 mi Calm Calm - N/A   Overcast
5:53 AM -0.0 °F - -8.0 °F 69% 30.10 in 10.0 mi Calm Calm - N/A   Overcast
6:53 AM -0.0 °F - -9.0 °F 66% 30.08 in 10.0 mi Calm Calm - N/A   Mostly Cloudy
7:53 AM -0.0 °F - -8.0 °F 69% 30.06 in 10.0 mi Calm Calm - N/A   Mostly Cloudy
8:53 AM -2.0 °F - -9.0 °F 72% 30.03 in 10.0 mi Calm Calm - N/A   Mostly Cloudy
9:53 AM 3.0 °F - -4.0 °F 73% 30.01 in 10.0 mi Calm Calm - N/A   Overcast
10:53 AM 3.9 °F - -2.9 °F 73% 29.99 in 10.0 mi Calm Calm - N/A   Overcast
11:53 AM 10.9 °F 4.7 °F 3.0 °F 70% 29.98 in 10.0 mi Variable 3.5 mph - N/A   Overcast
12:53 PM 10.9 °F - 3.9 °F 73% 29.98 in 3.0 mi Calm Calm - 0.00 in Snow Light Snow
1:00 PM 12.2 °F 6.1 °F 5.0 °F 73% 29.96 in 2.5 mi Variable 3.5 mph - 0.00 in Snow Light Snow
1:08 PM 10.4 °F - 3.2 °F 73% 29.96 in 5.0 mi Calm Calm - 0.00 in   Haze
1:53 PM 12.9 °F - 5.0 °F 71% 29.97 in 3.0 mi Calm Calm - 0.00 in Snow Light Snow
2:01 PM 12.2 °F - 6.8 °F 79% 29.95 in 2.0 mi Calm Calm - 0.00 in Snow Light Snow
2:17 PM 12.2 °F - 6.8 °F 79% 29.95 in 5.0 mi Calm Calm - 0.00 in   Haze
2:53 PM 15.1 °F 9.4 °F 7.0 °F 70% 29.97 in 10.0 mi Variable 3.5 mph - 0.00 in   Overcast
3:53 PM 18.0 °F - 9.0 °F 68% 29.96 in 10.0 mi Calm Calm - 0.00 in   Overcast
4:53 PM 19.0 °F 13.9 °F 9.0 °F 65% 29.95 in 10.0 mi Variable 3.5 mph - N/A   Mostly Cloudy
5:53 PM 21.9 °F 14.5 °F 6.1 °F 51% 29.95 in 10.0 mi Variable 5.8 mph - N/A   Scattered Clouds
6:53 PM 19.9 °F 10.1 °F 5.0 °F 52% 29.95 in 10.0 mi West 8.1 mph - N/A   Clear
7:53 PM 18.0 °F - 3.9 °F 54% 29.97 in 10.0 mi Calm Calm - N/A   Partly Cloudy
8:53 PM 14.0 °F 5.1 °F 1.9 °F 59% 29.99 in 10.0 mi SW 5.8 mph - N/A   Mostly Cloudy
10:53 PM 10.0 °F 3.6 °F -0.9 °F 61% 30.01 in 10.0 mi South 3.5 mph - N/A   Clear
11:53 PM 8.1 °F - -2.0 °F 64% 30.03 in 10.0 mi Calm Calm - N/A   Clear